This is the latest recevied weather packets stored in our database for station/object EA2AFZ-W. If no packets are shown the sender has not sent any weather packets the latest 10 day(s).
| Time | Temp. | Humidity | Pressure | Rain* | Wind** | Luminosity | Snow |
|---|---|---|---|---|---|---|---|
| 1777317365 | 16.11° C | 69% | 1017 hPa | 0 mm | - | - | - |
| 1777315562 | 16.67° C | 70% | 1017 hPa | 0 mm | - | - | - |
| 1777313760 | 17.22° C | 71% | 1017 hPa | 0 mm | - | - | - |
| 1777311956 | 17.78° C | 71% | 1017 hPa | 0 mm | - | - | - |
| 1777310155 | 18.89° C | 72% | 1017 hPa | 0 mm | - | - | - |
| 1777308351 | 18.89° C | 70% | 1017 hPa | 0 mm | - | - | - |
| 1777306548 | 18.89° C | 65% | 1016 hPa | 0 mm | - | - | - |
| 1777304746 | 19.44° C | 63% | 1016 hPa | 0 mm | - | - | - |
| 1777302943 | 20° C | 65% | 1016 hPa | 0 mm | - | - | - |
| 1777301140 | 20.56° C | 63% | 1016 hPa | 0 mm | - | - | - |
| 1777299339 | 20° C | 66% | 1016 hPa | 0 mm | - | - | - |
| 1777297535 | 20° C | 65% | 1016 hPa | 0 mm | - | - | - |
| 1777295732 | 20° C | 64% | 1017 hPa | 0 mm | - | - | - |
| 1777293929 | 18.33° C | 70% | 1017 hPa | 0 mm | - | - | - |
| 1777292127 | 17.78° C | 73% | 1018 hPa | 0 mm | - | - | - |
| 1777290325 | 17.22° C | 71% | 1018 hPa | 0 mm | - | - | - |
| 1777288521 | 16.67° C | 68% | 1019 hPa | 0 mm | - | - | - |
| 1777286719 | 16.11° C | 69% | 1019 hPa | 0 mm | - | - | - |
| 1777284916 | 16.67° C | 69% | 1019 hPa | 0 mm | - | - | - |
| 1777283114 | 18.33° C | 69% | 1020 hPa | 0 mm | - | - | - |
| 1777281312 | 18.33° C | 72% | 1020 hPa | 0 mm | - | - | - |
| 1777279509 | 15.56° C | 73% | 1020 hPa | 0 mm | - | - | - |
| 1777277767 | 15.56° C | 63% | 1019 hPa | 0 mm | - | - | - |
| 1777275964 | 16.11° C | 69% | 1020 hPa | 0 mm | - | - | - |
| 1777274162 | 14.44° C | 73% | 1019 hPa | 0 mm | - | - | - |
* Rain latest hour (hover to see other rain measurements)
** Current wind speed in m/s (hover to see current wind gust speed)